DW4915 Mazarete ES current weather conditions

sailwx.info

Wind from 178

Air temperature 25.6° C
Dewpoint 25.6° C

Last reported at 2017-Mar-26 06:51 UTC.
Time now 2017-Mar-26 07:21 UTC

Location: N 40°58' W 002°11'.
View on Google Maps.

See reports from other nearby stations

  
Tides and Currents Weather Stations Pressure Air Temp Water Temp Dewpoint Dewpoint Depression Visibility Wind Speed Wind Dir Waves Ship Positions
date/time (UTC)wind fromknots sea level pressurealtimeterstation pressurevisibilityair tempwater tempwave heightnotes
2017-Mar-26 06:51 178 25.6
2017-Mar-26 06:46 173 25.6
2017-Mar-26 06:41 164 25.0
2017-Mar-26 06:36 162 25.0
2017-Mar-26 06:31 161 25.0
2017-Mar-26 06:26 162 25.0
2017-Mar-26 06:21 162 24.4
2017-Mar-26 06:16 162 24.4
2017-Mar-26 06:11 162 24.4
2017-Mar-26 06:06 162 24.4
2017-Mar-26 06:01 162 24.4
2017-Mar-26 05:56 162 24.4
2017-Mar-26 05:51 162 24.4
2017-Mar-26 05:46 162 24.4
2017-Mar-26 05:41 162 24.4
2017-Mar-26 05:36 162 24.4
2017-Mar-26 05:31 163 24.4
2017-Mar-26 05:26 162 24.4
2017-Mar-26 05:21 162 23.9
2017-Mar-26 05:16 158 23.9
2017-Mar-26 05:11 158 23.9
2017-Mar-26 05:06 157 23.9
2017-Mar-26 05:01 157 23.9
2017-Mar-26 04:56 156 23.9
2017-Mar-26 04:51 154 23.9
2017-Mar-26 04:46 157 23.3
2017-Mar-26 04:41 158 23.3
2017-Mar-26 04:36 158 23.3
2017-Mar-26 04:31 158 23.3
2017-Mar-26 04:26 156 23.3
2017-Mar-26 04:21 158 23.3
2017-Mar-26 04:16 154 23.3
2017-Mar-26 04:11 154 23.3
2017-Mar-26 04:06 157 23.3
2017-Mar-26 04:01 156 23.3
2017-Mar-26 03:56 148 23.3
2017-Mar-26 03:51 155 23.3
2017-Mar-26 03:46 158 23.3
2017-Mar-26 03:41 162 23.3
2017-Mar-26 03:36 168 23.9
2017-Mar-26 03:31 158 23.9
2017-Mar-26 03:26 162 24.4
2017-Mar-26 03:21 160 24.4
2017-Mar-26 03:16 161 24.4
2017-Mar-26 03:11 161 24.4
2017-Mar-26 03:06 160 24.4
2017-Mar-26 03:01 159 24.4
2017-Mar-26 02:56 166 24.4
2017-Mar-26 02:51 158 24.4
2017-Mar-26 02:46 160 25.0
2017-Mar-26 02:41 169 25.6
2017-Mar-26 02:36 162 25.6
2017-Mar-26 02:31 163 25.6
2017-Mar-26 02:26 164 25.6
2017-Mar-26 02:21 158 25.6
2017-Mar-26 02:16 167 25.6
2017-Mar-26 02:11 166 26.1
2017-Mar-26 02:06 175 26.1
2017-Mar-26 02:01 190 26.1
2017-Mar-26 01:56 178 26.1
2017-Mar-26 01:51 178 26.1
2017-Mar-26 01:46 185 26.1
2017-Mar-26 01:41 180 26.1
2017-Mar-26 01:36 183 26.1
2017-Mar-26 01:31 183 26.1
2017-Mar-26 01:26 183 26.1
2017-Mar-26 01:21 187 26.1
2017-Mar-26 01:16 186 26.1
2017-Mar-26 01:11 190 26.1
2017-Mar-26 01:06 173 26.1
2017-Mar-26 01:01 172 26.1
2017-Mar-26 00:56 171 26.1
2017-Mar-26 00:51 193 26.1
2017-Mar-26 00:46 181 26.1
2017-Mar-26 00:41 189 26.1
2017-Mar-26 00:36 190 26.1
2017-Mar-26 00:31 165 26.1
2017-Mar-26 00:26 183 26.1
2017-Mar-26 00:21 221 26.1
2017-Mar-26 00:16 183 26.1
2017-Mar-26 00:11 197 26.7
2017-Mar-26 00:06 183 26.7
2017-Mar-26 00:01 253 26.7
2017-Mar-25 23:56 242 26.7
2017-Mar-25 23:51 200 26.7
2017-Mar-25 23:46 240 26.7
2017-Mar-25 23:41 187 26.7
2017-Mar-25 23:36 162 26.7
2017-Mar-25 23:31 177 26.7
2017-Mar-25 23:26 178 26.7
2017-Mar-25 23:21 183 26.7
2017-Mar-25 23:16 180 26.7
2017-Mar-25 23:11 181 26.7
2017-Mar-25 23:06 178 26.7
2017-Mar-25 22:56 176 26.7
2017-Mar-25 22:51 176 26.7
2017-Mar-25 22:46 177 26.7
2017-Mar-25 22:41 177 26.7
2017-Mar-25 22:36 177 26.7
2017-Mar-25 22:31 177 26.7
2017-Mar-25 22:26 177 26.7
2017-Mar-25 22:21 166 26.7
2017-Mar-25 22:16 171 26.7
2017-Mar-25 22:11 173 26.1
2017-Mar-25 22:06 171 26.1
2017-Mar-25 22:01 171 26.1
2017-Mar-25 21:56 178 26.1
2017-Mar-25 21:51 179 26.1
2017-Mar-25 21:46 179 26.1
2017-Mar-25 21:41 177 26.1
2017-Mar-25 21:36 179 26.1
2017-Mar-25 21:31 167 26.7
2017-Mar-25 21:26 184 26.7
2017-Mar-25 21:21 179 26.7
2017-Mar-25 21:16 183 26.7
2017-Mar-25 21:11 183 26.7
2017-Mar-25 21:06 168 26.7
2017-Mar-25 21:01 179 26.7
2017-Mar-25 20:56 178 26.7
2017-Mar-25 20:51 178 26.7
2017-Mar-25 20:46 178 26.7
2017-Mar-25 20:41 178 26.7
2017-Mar-25 20:36 178 26.7
2017-Mar-25 20:31 178 26.7
2017-Mar-25 20:26 179 26.7
2017-Mar-25 20:21 181 27.2
2017-Mar-25 20:16 182 27.2
2017-Mar-25 20:11 182 27.2
2017-Mar-25 20:06 181 27.2
2017-Mar-25 20:01 181 27.2
2017-Mar-25 19:56 181 27.2
2017-Mar-25 19:51 181 27.2
2017-Mar-25 19:46 188 27.2
2017-Mar-25 19:41 202 27.8
2017-Mar-25 19:36 178 27.8
2017-Mar-25 19:31 179 27.8
2017-Mar-25 19:26 182 27.8
2017-Mar-25 19:16 185 27.8
2017-Mar-25 19:11 181 27.8
2017-Mar-25 19:06 202 28.3
2017-Mar-25 19:01 186 28.3
2017-Mar-25 18:56 182 28.3
2017-Mar-25 18:51 185 28.3
2017-Mar-25 18:46 196 28.3
2017-Mar-25 18:41 211 28.3
2017-Mar-25 18:36 180 28.3
2017-Mar-25 18:31 185 28.3
2017-Mar-25 18:26 184 28.3
2017-Mar-25 18:21 171 28.3
2017-Mar-25 18:16 189 28.3
2017-Mar-25 18:11 186 28.3
2017-Mar-25 18:06 184 28.3
2017-Mar-25 18:01 200 28.3
2017-Mar-25 17:56 200 28.3
2017-Mar-25 17:51 228 28.3
2017-Mar-25 17:41 211 28.3
2017-Mar-25 17:36 177 28.3
2017-Mar-25 17:31 245 28.3
2017-Mar-25 17:26 227 27.8
2017-Mar-25 17:21 235 27.8
2017-Mar-25 17:16 225 27.8
2017-Mar-25 17:11 241 27.8
2017-Mar-25 17:06 216 27.8
2017-Mar-25 17:01 203 27.8
2017-Mar-25 16:56 238 27.2
2017-Mar-25 16:51 242 27.2
2017-Mar-25 16:46 207 26.7
2017-Mar-25 16:41 176 26.7
2017-Mar-25 16:36 242 26.7
2017-Mar-25 16:31 244 26.1
2017-Mar-25 16:26 245 26.1
2017-Mar-25 16:21 245 26.1
2017-Mar-25 16:16 245 26.1
2017-Mar-25 16:11 246 26.1
2017-Mar-25 16:06 211 26.1
2017-Mar-25 16:01 237 26.1
2017-Mar-25 15:56 240 26.1
2017-Mar-25 15:51 235 26.1
2017-Mar-25 15:46 207 26.1
2017-Mar-25 15:41 178 26.1
2017-Mar-25 15:36 190 26.1
2017-Mar-25 15:31 221 26.1
2017-Mar-25 15:26 211 26.1
2017-Mar-25 15:21 194 26.1
2017-Mar-25 15:16 187 26.1
2017-Mar-25 15:11 225 26.1
2017-Mar-25 15:06 211 25.6
2017-Mar-25 15:01 216 25.6
2017-Mar-25 14:56 221 25.6
2017-Mar-25 14:51 241 25.6
2017-Mar-25 14:46 229 25.6
2017-Mar-25 14:41 248 26.1
2017-Mar-25 14:36 251 26.1
2017-Mar-25 14:31 206 26.7
2017-Mar-25 14:26 211 27.2
2017-Mar-25 14:21 233 27.8
2017-Mar-25 14:16 246 28.3
2017-Mar-25 14:11 243 28.3
2017-Mar-25 14:06 226 28.3
2017-Mar-25 14:01 198 28.3
2017-Mar-25 13:56 216 28.3
2017-Mar-25 13:51 196 28.3
2017-Mar-25 13:46 231 27.8
2017-Mar-25 13:41 200 28.3
2017-Mar-25 13:36 221 28.3
2017-Mar-25 13:31 221 28.9
2017-Mar-25 13:26 227 28.9
2017-Mar-25 13:21 216 28.9
2017-Mar-25 13:16 248 28.9
2017-Mar-25 13:11 259 28.9
2017-Mar-25 13:06 251 28.9
2017-Mar-25 13:01 207 28.9
2017-Mar-25 12:56 286 29.4
2017-Mar-25 12:51 238 29.4
2017-Mar-25 12:46 244 29.4
2017-Mar-25 12:41 231 29.4
2017-Mar-25 12:36 230 30.0
2017-Mar-25 12:31 238 30.0
2017-Mar-25 12:26 232 30.0
2017-Mar-25 12:21 244 30.6
2017-Mar-25 12:16 227 30.0
2017-Mar-25 12:11 221 30.0
2017-Mar-25 12:06 227 30.0
2017-Mar-25 12:01 227 30.0
2017-Mar-25 11:56 175 30.0
2017-Mar-25 11:51 248 30.0
2017-Mar-25 11:46 231 30.0
2017-Mar-25 11:41 211 30.0
2017-Mar-25 11:36 233 29.4
2017-Mar-25 11:31 229 30.0
2017-Mar-25 11:26 248 29.4
2017-Mar-25 11:16 231 28.3
2017-Mar-25 11:11 265 28.9
2017-Mar-25 11:06 283 28.9
2017-Mar-25 11:01 244 28.3
2017-Mar-25 10:51 229 28.3
2017-Mar-25 10:46 281 27.8
2017-Mar-25 10:41 255 27.8
2017-Mar-25 10:36 271 27.2
2017-Mar-25 10:31 277 27.2
2017-Mar-25 10:26 257 27.2
2017-Mar-25 10:21 263 26.7
2017-Mar-25 10:16 260 26.7
2017-Mar-25 10:11 239 26.1
2017-Mar-25 10:06 234 26.1
2017-Mar-25 10:01 259 26.1
2017-Mar-25 09:56 262 25.6
2017-Mar-25 09:51 227 25.0
2017-Mar-25 09:46 245 25.0
2017-Mar-25 09:41 265 24.4
2017-Mar-25 09:36 243 23.9
2017-Mar-25 09:31 246 23.9
2017-Mar-25 09:21 231 23.3
2017-Mar-25 09:16 242 23.3
2017-Mar-25 09:11 240 22.8
2017-Mar-25 09:06 242 22.8
2017-Mar-25 09:01 234 22.8
2017-Mar-25 08:56 229 22.8
2017-Mar-25 08:51 227 22.2
2017-Mar-25 08:46 231 22.8
2017-Mar-25 08:41 194 22.2
2017-Mar-25 08:36 183 22.2
2017-Mar-25 08:31 127 22.2
2017-Mar-25 08:26 117 22.2
2017-Mar-25 08:21 077 21.7
2017-Mar-25 08:16 077 21.7
2017-Mar-25 08:11 076 21.7
2017-Mar-25 08:06 076 21.7
2017-Mar-25 08:01 076 21.7
2017-Mar-25 07:56 076 21.7
2017-Mar-25 07:51 075 21.7
2017-Mar-25 07:46 075 21.7
2017-Mar-25 07:41 075 21.7
2017-Mar-25 07:36 075 21.7
2017-Mar-25 07:31 075 21.7
2017-Mar-25 07:26 074 21.7
2017-Mar-25 07:21 073 21.7
2017-Mar-25 07:16 074 21.7
2017-Mar-25 07:11 075 21.7
2017-Mar-25 07:06 073 21.7
2017-Mar-25 07:01 075 21.7
2017-Mar-25 06:56 074 21.7
2017-Mar-25 06:51 073 21.7
2017-Mar-25 06:46 075 21.7
2017-Mar-25 06:41 075 21.7
2017-Mar-25 06:36 074 21.7
2017-Mar-25 06:31 075 21.7
2017-Mar-25 06:26 074 21.7
2017-Mar-25 06:21 075 21.1
2017-Mar-25 06:16 075 21.1
2017-Mar-25 06:11 075 21.1
2017-Mar-25 06:06 075 21.7
2017-Mar-25 06:01 074 21.7
2017-Mar-25 05:56 073 21.7
2017-Mar-25 05:51 075 21.7
2017-Mar-25 05:46 074 21.1
2017-Mar-25 05:41 074 21.1
2017-Mar-25 05:36 075 21.1
2017-Mar-25 05:31 074 21.1
2017-Mar-25 05:26 075 21.1
2017-Mar-25 05:21 073 21.1
2017-Mar-25 05:16 074 21.1
2017-Mar-25 05:11 075 21.1
2017-Mar-25 05:06 074 21.1
2017-Mar-25 05:01 075 21.1
2017-Mar-25 04:56 074 21.1
2017-Mar-25 04:51 074 21.1
2017-Mar-25 04:46 074 21.7
2017-Mar-25 04:41 075 21.7
2017-Mar-25 04:36 074 21.7
2017-Mar-25 04:31 074 21.7
2017-Mar-25 04:26 075 21.7
2017-Mar-25 04:21 074 21.7
2017-Mar-25 04:16 074 21.7
2017-Mar-25 04:11 074 21.7
2017-Mar-25 04:06 074 21.7
2017-Mar-25 04:01 074 21.7
2017-Mar-25 03:56 075 21.7
2017-Mar-25 03:51 073 21.7
2017-Mar-25 03:46 075 21.7
2017-Mar-25 03:41 075 21.7
2017-Mar-25 03:36 075 21.7
2017-Mar-25 03:31 075 21.7
2017-Mar-25 03:26 074 21.7
2017-Mar-25 03:21 074 21.7
2017-Mar-25 03:16 074 21.7
2017-Mar-25 03:11 075 21.7
2017-Mar-25 03:06 075 22.2
2017-Mar-25 03:01 074 22.2
2017-Mar-25 02:56 075 22.2
2017-Mar-25 02:51 075 22.2
2017-Mar-25 02:46 074 22.2
2017-Mar-25 02:41 075 22.2
2017-Mar-25 02:36 073 21.7
2017-Mar-25 02:31 075 21.7
2017-Mar-25 02:26 074 21.7
2017-Mar-25 02:21 074 21.7
2017-Mar-25 02:16 075 22.2
2017-Mar-25 02:11 074 22.2
2017-Mar-25 02:06 074 22.2
2017-Mar-25 02:01 074 22.2
2017-Mar-25 01:56 074 22.2
2017-Mar-25 01:51 074 21.7
2017-Mar-25 01:46 075 21.7
2017-Mar-25 01:41 075 22.2
2017-Mar-25 01:36 075 22.2
2017-Mar-25 01:31 075 22.2
2017-Mar-25 01:26 075 22.2
2017-Mar-25 01:21 074 22.2
2017-Mar-25 01:16 075 22.2
2017-Mar-25 01:11 075 22.2
2017-Mar-25 01:06 076 22.2
2017-Mar-25 01:01 074 22.2
2017-Mar-25 00:56 074 22.2
2017-Mar-25 00:51 074 22.8
2017-Mar-25 00:41 074 22.8
2017-Mar-25 00:36 075 22.8
2017-Mar-25 00:31 074 22.8
2017-Mar-25 00:26 074 22.8
2017-Mar-25 00:21 075 22.8
2017-Mar-25 00:16 075 22.8
2017-Mar-25 00:11 075 22.8
2017-Mar-25 00:06 073 22.8
2017-Mar-25 00:01 074 22.8
2017-Mar-24 23:56 074 23.3
2017-Mar-24 23:51 075 23.3
2017-Mar-24 23:46 074 23.3
2017-Mar-24 23:41 075 23.3
2017-Mar-24 23:36 075 23.3
2017-Mar-24 23:31 074 23.3
2017-Mar-24 23:26 075 23.3
2017-Mar-24 23:21 074 23.3
2017-Mar-24 23:16 075 23.3
2017-Mar-24 23:11 075 23.3
2017-Mar-24 23:06 073 23.3
2017-Mar-24 23:01 074 23.3
2017-Mar-24 22:56 074 23.3
2017-Mar-24 22:51 073 23.3
2017-Mar-24 22:46 076 23.3
2017-Mar-24 22:41 074 23.3
2017-Mar-24 22:36 075 23.3
2017-Mar-24 22:31 074 23.3
2017-Mar-24 22:26 074 23.3
2017-Mar-24 22:21 075 23.3
2017-Mar-24 22:16 074 23.3
2017-Mar-24 22:11 074 23.3
2017-Mar-24 22:06 075 23.3
2017-Mar-24 22:01 075 23.3
2017-Mar-24 21:56 074 23.3
2017-Mar-24 21:51 075 23.3
2017-Mar-24 21:46 075 23.3
2017-Mar-24 21:41 073 23.3
2017-Mar-24 21:36 075 23.3
2017-Mar-24 21:31 075 23.3
2017-Mar-24 21:26 075 23.3
2017-Mar-24 21:21 073 22.8
2017-Mar-24 21:16 075 22.8
2017-Mar-24 21:11 075 22.8
2017-Mar-24 21:06 074 22.8
2017-Mar-24 21:01 075 22.8
2017-Mar-24 20:56 074 22.8
2017-Mar-24 20:51 074 22.8
2017-Mar-24 20:46 075 22.8
2017-Mar-24 20:41 074 23.3
2017-Mar-24 20:36 075 23.3
2017-Mar-24 20:31 074 23.3
2017-Mar-24 20:26 074 23.3
2017-Mar-24 20:21 074 23.3
2017-Mar-24 20:11 074 23.3
2017-Mar-24 20:06 074 23.3
2017-Mar-24 20:01 074 23.3
2017-Mar-24 19:56 075 23.3
2017-Mar-24 19:51 075 23.9
2017-Mar-24 19:46 074 23.9
2017-Mar-24 19:41 075 23.9
2017-Mar-24 19:36 074 23.9
2017-Mar-24 19:31 074 23.9
2017-Mar-24 19:26 075 23.9
2017-Mar-24 19:21 074 23.9
2017-Mar-24 19:16 074 23.9
2017-Mar-24 19:11 075 23.9
2017-Mar-24 19:06 075 23.9
2017-Mar-24 19:01 075 23.9
2017-Mar-24 18:56 074 23.9
2017-Mar-24 18:51 074 23.9
2017-Mar-24 18:46 073 23.9
2017-Mar-24 18:41 075 23.9
2017-Mar-24 18:36 075 23.9
2017-Mar-24 18:31 073 23.9
2017-Mar-24 18:26 074 23.9
2017-Mar-24 18:21 075 23.9
2017-Mar-24 18:16 075 24.4
2017-Mar-24 18:11 073 24.4
2017-Mar-24 18:06 073 25.0
2017-Mar-24 18:01 074 25.0
2017-Mar-24 17:56 075 25.0
2017-Mar-24 17:51 075 25.0
2017-Mar-24 17:46 074 25.6
2017-Mar-24 17:41 075 25.6
2017-Mar-24 17:36 075 26.1
2017-Mar-24 17:31 075 27.2
2017-Mar-24 17:26 074 27.8
2017-Mar-24 17:21 074 28.9
2017-Mar-24 17:16 078 29.4
2017-Mar-24 17:11 094 30.6
2017-Mar-24 17:06 030 30.6
2017-Mar-24 17:01 030 31.1
2017-Mar-24 16:56 030 31.1
2017-Mar-24 16:46 030 31.1
2017-Mar-24 16:41 034 31.1
2017-Mar-24 16:36 047 31.1
2017-Mar-24 16:31 078 31.1
2017-Mar-24 16:26 078 31.1
2017-Mar-24 16:21 077 31.1
2017-Mar-24 16:16 085 31.7
2017-Mar-24 16:11 086 32.2
2017-Mar-24 16:06 092 32.2
2017-Mar-24 16:01 094 31.7
2017-Mar-24 15:56 101 31.1
2017-Mar-24 15:51 102 31.1
2017-Mar-24 15:46 102 31.1
2017-Mar-24 15:36 123 31.1
2017-Mar-24 15:31 123 31.7
2017-Mar-24 15:26 124 31.7
2017-Mar-24 15:21 124 31.7
2017-Mar-24 15:16 123 31.7
2017-Mar-24 15:11 124 32.2
2017-Mar-24 15:06 131 32.8
2017-Mar-24 15:01 131 32.2
2017-Mar-24 14:56 131 31.7
2017-Mar-24 14:51 131 31.7
2017-Mar-24 14:46 131 31.7
2017-Mar-24 14:41 142 31.7
2017-Mar-24 14:36 143 31.7
2017-Mar-24 14:31 143 31.7
2017-Mar-24 14:26 142 31.7
2017-Mar-24 14:21 142 32.2
2017-Mar-24 14:16 142 31.7
2017-Mar-24 14:11 142 32.2
2017-Mar-24 14:06 142 32.2
2017-Mar-24 14:01 142 32.8
2017-Mar-24 13:56 143 33.3
2017-Mar-24 13:51 144 32.8
2017-Mar-24 13:46 143 33.3
2017-Mar-24 13:41 144 33.3
2017-Mar-24 13:36 143 33.9
2017-Mar-24 13:31 143 33.3
2017-Mar-24 13:26 144 33.3
2017-Mar-24 13:21 143 33.3
2017-Mar-24 13:16 144 32.8
2017-Mar-24 13:11 133 33.3
2017-Mar-24 13:06 056 32.8
2017-Mar-24 13:01 057 32.8
2017-Mar-24 12:56 063 32.2
2017-Mar-24 12:51 111 32.2
2017-Mar-24 12:46 123 32.2
2017-Mar-24 12:41 125 31.7
2017-Mar-24 12:36 106 31.1
2017-Mar-24 12:31 106 30.6
2017-Mar-24 12:26 106 30.0
2017-Mar-24 12:21 106 31.1
2017-Mar-24 12:16 116 31.1
2017-Mar-24 12:11 115 32.2
2017-Mar-24 12:06 116 32.2
2017-Mar-24 12:01 119 31.1
2017-Mar-24 11:56 118 31.1
2017-Mar-24 11:51 119 30.6
2017-Mar-24 11:46 119 31.1
2017-Mar-24 11:41 118 31.1
2017-Mar-24 11:36 120 30.6
2017-Mar-24 11:26 147 30.6
2017-Mar-24 11:21 100 30.6
2017-Mar-24 11:16 100 30.0
2017-Mar-24 11:11 100 30.0
2017-Mar-24 11:06 100 30.0
2017-Mar-24 11:01 100 29.4
2017-Mar-24 10:56 100 29.4
2017-Mar-24 10:51 100 28.9
2017-Mar-24 10:46 101 28.3
2017-Mar-24 10:41 101 28.9
2017-Mar-24 10:36 100 28.3
2017-Mar-24 10:31 100 28.3
2017-Mar-24 10:26 100 28.3
2017-Mar-24 10:21 100 28.3
2017-Mar-24 10:16 100 28.3
2017-Mar-24 10:11 100 28.3
2017-Mar-24 10:06 100 27.8
2017-Mar-24 10:01 100 27.8
2017-Mar-24 09:56 100 28.3
2017-Mar-24 09:51 100 28.3
2017-Mar-24 09:46 100 28.3
2017-Mar-24 09:41 100 27.8
2017-Mar-24 09:36 101 27.2
2017-Mar-24 09:31 102 27.2
2017-Mar-24 09:26 102 27.2
2017-Mar-24 09:16 091 26.7
2017-Mar-24 09:11 088 26.1
2017-Mar-24 09:06 088 26.1